Location: Treviso
(45.6669°N, 12.2430°E)
Time: 17:44:25
(UTC+02:00)

CUBESAT XI-V - Pass Details

Date: 26 April 2019
Orbit: 668 x 694 km, 98.0° (Epoch: 21 May)

Event Time Altitude Azimuth Distance (km) Brightness Sun altitude
Exits shadow 04:59:16 16° 246° (WSW) 1,786 ? -11.5°
Maximum altitude 05:00:43 18° 269° (W) 1,676 ? -11.3°
Drops below altitude 10° 05:03:52 10° 312° (NW) 2,139 ? -10.8°
Sets 05:06:49 0° 331° (NNW) 3,055 ? -10.4°
